{"data":{"norad_id":66817,"intl_designator":"2025-278AC","name":"STARLINK-35995","alt_names":[],"object_type":"PAYLOAD","status":"ACTIVE","operator":null,"country":"US","launch_date":"2025-12-01","launch_site_code":"AFETR","launch_vehicle":null,"mission":null,"orbit_class":"UNKNOWN","rcs_meters":null,"size_class":null,"mass_kg":null,"dimensions":null,"purposes":["comms"],"wikipedia_slug":null,"has_3d_model":false,"image_url":null,"decayed_at":null,"tle_current":{"epoch":"2026-09-20T05:42:37.955520Z","epoch_age_seconds":109183,"freshness":"FRESH","line1":"1 66817U 25278AC  26263.23793930  .00007098  00000+0  26720-3 0  9990","line2":"2 66817  43.0008  95.5789 0001299 276.1251  83.9452 15.27582565 44963","mean_motion":15.27582565,"eccentricity":0.0001299,"inclination_deg":43.0008,"raan_deg":95.5789,"arg_perigee_deg":276.1251,"mean_anomaly_deg":83.9452,"bstar":0.0002672,"rev_number":4496,"period_min":94.266590428125,"perigee_km":482.15014844147,"apogee_km":483.93268259382,"semimajor_km":6861.1784155176,"source":"CELESTRAK","updated_at":"2026-09-21T09:00:36.018755Z"}}}